DW2047 Weather Reports


time (UTC)temp
C
wind
direction
speed
KPH
gust
KPH
rain 1hr
cm
rain 24hr
cm
rain mn
cm
humidity
%
barometer
mb
20260903072036 26 150 3.2 11.3 0.00 0.00 0.00 79 1012.4
20260903071530 26 148 3.2 12.9 0.00 0.00 0.00 79 1012.5
20260903071005 26 173 4.8 12.9 0.00 0.00 0.00 79 1012.6
20260903070548 26 159 4.8 8.0 0.00 0.00 0.00 79 1012.6
20260903070100 26 155 4.8 11.3 0.00 0.00 0.00 80 1012.6
20260903065536 26 161 4.8 11.3 0.00 0.00 0.00 80 1012.6
20260903065012 26 137 3.2 11.3 0.00 0.00 0.00 80 1012.6
20260903064508 26 148 4.8 11.3 0.00 0.00 0.00 80 1012.6
20260903064049 26 142 4.8 11.3 0.00 0.00 0.00 80 1012.7
20260903063526 26 162 4.8 11.3 0.00 0.00 0.00 80 1012.8
20260903063021 26 155 1.6 9.7 0.00 0.00 0.00 80 1012.8
20260903062603 26 155 3.2 14.5 0.00 0.00 0.00 80 1012.9
20260903062038 26 161 4.8 14.5 0.00 0.00 0.00 81 1012.9
20260903061534 26 152 3.2 14.5 0.00 0.00 0.00 81 1012.8
20260903061013 26 151 4.8 14.5 0.00 0.00 0.00 81 1012.9
20260903060552 26 142 3.2 8.0 0.00 0.00 0.00 81 1012.8
20260903060003 26 140 3.2 8.0 0.00 0.00 0.00 80 1012.9
20260903055543 26 142 1.6 8.0 0.00 0.00 0.00 80 1012.9
20260903055022 26 150 3.2 9.7 0.00 0.00 0.00 80 1012.9
20260903054522 26 155 3.2 9.7 0.00 0.00 0.00 80 1013.0
20260903054056 26 137 1.6 12.9 0.00 0.00 0.00 79 1013.0
20260903053533 27 134 6.4 16.1 0.00 0.00 0.00 79 1013.0
20260903053028 27 149 6.4 16.1 0.00 0.00 0.00 78 1012.9
20260903052505 27 132 6.4 14.5 0.00 0.00 0.00 77 1013.0
20260903052046 27 133 3.2 17.7 0.00 0.00 0.00 77 1013.0
20260903051542 27 128 11.3 17.7 0.00 0.00 0.00 76 1012.9
20260903051020 27 134 4.8 14.5 0.00 0.00 0.00 75 1012.9
20260903050559 27 169 6.4 17.7 0.00 0.00 0.00 75 1012.8
20260903050009 27 161 8.0 17.7 0.00 0.00 0.00 74 1012.8
20260903045550 27 145 6.4 14.5 0.00 0.00 0.00 73 1012.8
20260903045026 27 129 6.4 14.5 0.00 0.00 0.00 73 1012.7
20260903044541 27 140 4.8 11.3 0.00 0.00 0.00 73 1012.7
20260903044017 27 138 4.8 12.9 0.00 0.00 0.00 72 1012.7
20260903043559 27 148 1.6 12.9 0.00 0.00 0.00 71 1012.7
20260903043054 28 71 1.6 8.0 0.00 0.00 0.00 71 1012.7
20260903042530 28 125 1.6 8.0 0.00 0.00 0.00 70 1012.7
20260903042007 28 136 1.6 14.5 0.00 0.00 0.00 70 1012.7
20260903041524 28 135 3.2 20.9 0.00 0.00 0.00 70 1012.7
20260903041002 28 131 4.8 20.9 0.00 0.00 0.00 70 1012.8
20260903040542 28 98 3.2 17.7 0.00 0.00 0.00 70 1012.9
20260903040100 28 126 9.7 16.1 0.00 0.00 0.00 70 1012.9
20260903035535 28 140 6.4 12.9 0.00 0.00 0.00 70 1012.9
20260903035012 28 137 3.2 17.7 0.00 0.00 0.00 71 1012.8
20260903034510 28 130 6.4 17.7 0.00 0.00 0.00 70 1012.8
20260903034049 28 131 4.8 16.1 0.00 0.00 0.00 70 1012.8
20260903033525 29 76 6.4 16.1 0.00 0.00 0.00 69 1012.9
20260903033039 29 67 4.8 12.9 0.00 0.00 0.00 68 1012.7
20260903032508 29 90 3.2 12.9 0.00 0.00 0.00 67 1012.8
20260903032053 30 63 4.8 12.9 0.00 0.00 0.00 66 1012.7
20260903031556 30 76 1.6 12.9 0.00 0.00 0.00 65 1012.5
20260903031037 30 67 4.8 12.9 0.00 0.00 0.00 63 1012.4
20260903030515 30 76 3.2 12.9 0.00 0.00 0.00 61 1012.3
20260903030029 30 84 1.6 16.1 0.00 0.00 0.00 60 1012.2
20260903025504 30 130 6.4 17.7 0.00 0.00 0.00 60 1012.1
20260903025044 30 131 4.8 17.7 0.00 0.00 0.00 60 1012.0
20260903024555 30 135 4.8 14.5 0.00 0.00 0.00 60 1012.0
20260903024032 30 46 3.2 12.9 0.00 0.00 0.00 60 1011.9
20260903023508 30 146 1.6 4.8 0.00 0.00 0.00 60 1011.7
20260903023020 30 146 0.0 1.6 0.00 0.00 0.00 60 1011.5
20260903022600 30 146 0.0 1.6 0.00 0.00 0.00 60 1011.3
20260903022039 30 146 0.0 0.0 0.00 0.00 0.00 58 1011.2
20260903021548 30 146 0.0 0.0 0.00 0.00 0.00 58 1011.0
20260903021026 30 146 0.0 3.2 0.00 0.00 0.00 58 1011.0
20260903020605 30 146 0.0 3.2 0.00 0.00 0.00 59 1010.9
20260903020011 31 146 0.0 0.0 0.00 0.00 0.00 58 1010.9
20260903015553 31 146 0.0 3.2 0.00 0.00 0.00 57 1010.9
20260903015029 31 146 0.0 3.2 0.00 0.00 0.00 56 1010.8
20260903014552 31 146 0.0 0.0 0.00 0.00 0.00 57 1010.7
20260903014018 31 146 0.0 0.0 0.00 0.00 0.00 56 1010.7
20260903013558 31 146 0.0 0.0 0.00 0.00 0.00 56 1010.6
20260903013007 32 146 0.0 0.0 0.00 0.00 0.00 55 1010.6
20260903012547 32 146 0.0 1.6 0.00 0.00 0.00 55 1010.6
20260903012025 32 146 0.0 1.6 0.00 0.00 0.00 54 1010.6
20260903011536 32 146 0.0 1.6 0.00 0.00 0.00 54 1010.6
20260903011012 33 146 0.0 4.8 0.00 0.00 0.00 51 1010.7
20260903010553 33 146 1.6 4.8 0.00 0.00 0.00 50 1010.7
20260903010105 33 146 0.0 0.0 0.00 0.00 0.00 50 1010.5
20260903005544 33 146 0.0 0.0 0.00 0.00 0.00 48 1010.5
20260903005018 34 146 0.0 0.0 0.00 0.00 0.00 48 1010.5
20260903004536 34 146 0.0 0.0 0.00 0.00 0.00 47 1010.6
20260903004008 34 146 0.0 1.6 0.00 0.00 0.00 48 1010.6
20260903003547 34 146 0.0 1.6 0.00 0.00 0.00 47 1010.6
20260903003058 35 146 0.0 1.6 0.00 0.00 0.00 48 1010.6
20260903002535 35 146 0.0 1.6 0.00 0.00 0.00 47 1010.6
20260903002014 35 146 0.0 3.2 0.00 0.00 0.00 46 1010.5
20260903001521 35 146 0.0 4.8 0.00 0.00 0.00 46 1010.5
20260903001103 35 146 1.6 4.8 0.00 0.00 0.00 45 1010.5
20260903000540 35 146 1.6 4.8 0.00 0.00 0.00 44 1010.5
20260903000051 35 146 1.6 4.8 0.00 0.00 0.00 44 1010.5
20260902235527 35 146 0.0 4.8 0.00 0.00 0.00 45 1010.5
20260902235004 35 146 1.6 6.4 0.00 0.00 0.00 44 1010.5
20260902234516 35 146 3.2 6.4 0.00 0.00 0.00 43 1010.5
20260902234056 35 146 1.6 6.4 0.00 0.00 0.00 43 1010.5
20260902233533 36 146 1.6 8.0 0.00 0.00 0.00 43 1010.5
20260902233045 36 147 0.0 8.0 0.00 0.00 0.00 42 1010.6
20260902232524 36 210 1.6 8.0 0.00 0.00 0.00 42 1010.6
20260902232103 36 199 0.0 8.0 0.00 0.00 0.00 43 1010.6
20260902231515 36 138 1.6 8.0 0.00 0.00 0.00 43 1010.6
20260902231054 36 174 1.6 11.3 0.00 0.00 0.00 43 1010.6
20260902230526 37 140 3.2 16.1 0.00 0.00 0.00 41 1010.6
20260902230039 38 138 3.2 11.3 0.00 0.00 0.00 39 1010.6
20260902225517 38 280 1.6 8.0 0.00 0.00 0.00 37 1010.3
20260902225101 38 245 1.6 4.8 0.00 0.00 0.00 37 1010.2
20260902224504 38 258 1.6 6.4 0.00 0.00 0.00 37 1010.2
20260902224045 38 257 1.6 6.4 0.00 0.00 0.00 38 1010.1
20260902223522 38 329 1.6 8.0 0.00 0.00 0.00 37 1010.2
20260902223034 38 333 0.0 4.8 0.00 0.00 0.00 37 1010.2
20260902222511 37 333 0.0 8.0 0.00 0.00 0.00 40 1010.3
20260902222051 37 333 3.2 8.0 0.00 0.00 0.00 40 1010.3
20260902221602 37 340 1.6 8.0 0.00 0.00 0.00 40 1010.4
20260902221039 37 339 1.6 8.0 0.00 0.00 0.00 40 1010.4
20260902220519 37 321 3.2 8.0 0.00 0.00 0.00 39 1010.5
20260902220027 36 333 3.2 8.0 0.00 0.00 0.00 43 1010.5
20260902215506 36 68 1.6 8.0 0.00 0.00 0.00 43 1010.7
20260902215044 36 292 1.6 6.4 0.00 0.00 0.00 42 1010.7
20260902214556 36 269 3.2 4.8 0.00 0.00 0.00 42 1010.7
20260902214032 36 268 1.6 4.8 0.00 0.00 0.00 43 1010.7
20260902213508 36 268 1.6 6.4 0.00 0.00 0.00 43 1010.7
20260902213023 36 268 1.6 8.0 0.00 0.00 0.00 41 1010.7
20260902212602 37 331 3.2 8.0 0.00 0.00 0.00 40 1010.8
20260902212037 38 244 3.2 6.4 0.00 0.00 0.00 36 1010.7
20260902211556 38 242 0.0 8.0 0.00 0.00 0.00 36 1010.7
20260902211028 38 334 1.6 11.3 0.00 0.00 0.00 36 1010.7
20260902210501 38 265 4.8 11.3 0.00 0.00 0.00 36 1010.9
20260902210012 38 254 3.2 11.3 0.00 0.00 0.00 35 1010.9
20260902205554 37 259 4.8 11.3 0.00 0.00 0.00 36 1010.9
20260902205030 37 253 4.8 11.3 0.00 0.00 0.00 38 1010.9
20260902204543 37 210 3.2 9.7 0.00 0.00 0.00 38 1011.0
20260902204021 37 144 1.6 9.7 0.00 0.00 0.00 40 1011.1
20260902203559 37 238 3.2 9.7 0.00 0.00 0.00 41 1011.2
20260902203004 37 140 3.2 8.0 0.00 0.00 0.00 40 1011.3
20260902202546 37 250 0.0 6.4 0.00 0.00 0.00 40 1011.3
20260902202023 37 189 1.6 6.4 0.00 0.00 0.00 41 1011.4
20260902201537 37 238 3.2 8.0 0.00 0.00 0.00 43 1011.5
20260902201010 36 136 1.6 8.0 0.00 0.00 0.00 45 1011.5
20260902200551 36 263 1.6 6.4 0.00 0.00 0.00 41 1011.6
20260902195543 36 263 0.0 6.4 0.00 0.00 0.00 46 1011.9
20260902195015 35 262 1.6 4.8 0.00 0.00 0.00 46 1012.0
20260902194535 35 360 0.0 6.4 0.00 0.00 0.00 48 1012.1
20260902194004 35 360 0.0 6.4 0.00 0.00 0.00 48 1012.1
20260902193544 35 360 0.0 6.4 0.00 0.00 0.00 47 1012.2
20260902193057 35 360 0.0 12.9 0.00 0.00 0.00 47 1012.3
20260902192532 36 302 4.8 12.9 0.00 0.00 0.00 44 1012.3
20260902192009 37 66 1.6 6.4 0.00 0.00 0.00 41 1012.3
20260902191524 37 66 3.2 6.4 0.00 0.00 0.00 42 1012.4
20260902191102 37 66 0.0 8.0 0.00 0.00 0.00 42 1012.5
20260902190538 37 66 0.0 12.9 0.00 0.00 0.00 42 1012.6
20260902190054 37 63 4.8 12.9 0.00 0.00 0.00 44 1012.6
20260902185526 36 345 3.2 11.3 0.00 0.00 0.00 44 1012.7
20260902185001 35 260 1.6 11.3 0.00 0.00 0.00 44 1012.8
20260902184514 35 301 3.2 8.0 0.00 0.00 0.00 44 1012.8
20260902184054 36 297 3.2 8.0 0.00 0.00 0.00 44 1013.0
20260902183531 36 215 1.6 9.7 0.00 0.00 0.00 43 1013.1
20260902183042 36 259 3.2 11.3 0.00 0.00 0.00 42 1013.1
20260902182521 36 261 4.8 11.3 0.00 0.00 0.00 43 1013.2
20260902182101 36 247 1.6 11.3 0.00 0.00 0.00 43 1013.3
20260902181509 36 138 3.2 11.3 0.00 0.00 0.00 43 1013.3
20260902181050 36 139 1.6 11.3 0.00 0.00 0.00 44 1013.5
20260902180529 36 101 1.6 12.9 0.00 0.00 0.00 44 1013.7
20260902180043 36 135 4.8 12.9 0.00 0.00 0.00 44 1013.7
20260902175518 36 267 1.6 11.3 0.00 0.00 0.00 45 1013.8
20260902175103 36 153 1.6 11.3 0.00 0.00 0.00 45 1014.0
20260902174507 35 271 6.4 11.3 0.00 0.00 0.00 44 1014.0
20260902174047 35 208 1.6 11.3 0.00 0.00 0.00 45 1014.1
20260902173525 35 281 4.8 11.3 0.00 0.00 0.00 45 1014.2
20260902173038 35 258 1.6 9.7 0.00 0.00 0.00 45 1014.3
20260902172511 35 258 4.8 12.9 0.00 0.00 0.00 45 1014.3
20260902172053 35 254 4.8 12.9 0.00 0.00 0.00 45 1014.5
20260902171605 35 259 3.2 12.9 0.00 0.00 0.00 47 1014.5
20260902171042 35 246 1.6 11.3 0.00 0.00 0.00 47 1014.5
20260902170516 35 254 3.2 11.3 0.00 0.00 0.00 46 1014.6
20260902170024 34 209 0.0 11.3 0.00 0.00 0.00 47 1014.7
20260902165605 34 273 4.8 11.3 0.00 0.00 0.00 48 1014.7
20260902165041 34 210 3.2 6.4 0.00 0.00 0.00 50 1014.7
20260902164552 33 263 1.6 11.3 0.00 0.00 0.00 49 1014.8
20260902164029 33 244 3.2 11.3 0.00 0.00 0.00 50 1014.8
20260902163505 33 284 3.2 11.3 0.00 0.00 0.00 52 1014.9
20260902163017 33 331 0.0 9.7 0.00 0.00 0.00 53 1015.0
20260902162557 33 313 3.2 8.0 0.00 0.00 0.00 52 1015.0
20260902162035 33 271 3.2 6.4 0.00 0.00 0.00 53 1015.0
20260902161547 33 271 1.6 9.7 0.00 0.00 0.00 53 1015.1
20260902161025 33 271 1.6 9.7 0.00 0.00 0.00 54 1015.1
20260902160503 32 271 1.6 6.4 0.00 0.00 0.00 54 1015.1
20260902160013 32 271 1.6 8.0 0.00 0.00 0.00 55 1015.1
20260902155556 32 257 3.2 12.9 0.00 0.00 0.00 55 1015.2
20260902155033 32 281 3.2 12.9 0.00 0.00 0.00 55 1015.1
20260902154544 32 192 1.6 6.4 0.00 0.00 0.00 57 1015.1
20260902154020 31 276 1.6 6.4 0.00 0.00 0.00 57 1015.1
20260902153600 31 276 1.6 6.4 0.00 0.00 0.00 58 1015.2
20260902153007 31 218 1.6 6.4 0.00 0.00 0.00 60 1015.2
20260902152547 31 218 1.6 6.4 0.00 0.00 0.00 59 1015.2
20260902152025 31 219 0.0 4.8 0.00 0.00 0.00 60 1015.2
20260902151535 31 218 1.6 6.4 0.00 0.00 0.00 60 1015.2
20260902151012 30 218 1.6 6.4 0.00 0.00 0.00 61 1015.3
20260902150553 30 238 1.6 4.8 0.00 0.00 0.00 61 1015.2
20260902150105 30 243 1.6 4.8 0.00 0.00 0.00 62 1015.2
20260902145541 30 242 1.6 4.8 0.00 0.00 0.00 62 1015.2
20260902145018 30 242 1.6 6.4 0.00 0.00 0.00 62 1015.2
20260902144536 30 248 0.0 6.4 0.00 0.00 0.00 62 1015.3
20260902144011 29 248 0.0 3.2 0.00 0.00 0.00 67 1015.3
20260902143550 29 248 0.0 3.2 0.00 0.00 0.00 66 1015.3
20260902143102 28 248 0.0 3.2 0.00 0.00 0.00 67 1015.3
20260902142539 28 248 0.0 6.4 0.00 0.00 0.00 69 1015.3
20260902142016 28 248 1.6 6.4 0.00 0.00 0.00 70 1015.3
20260902141535 27 139 0.0 3.2 0.00 0.00 0.00 72 1015.2
20260902141008 27 139 0.0 6.4 0.00 0.00 0.00 73 1015.2
20260902140549 27 139 1.6 6.4 0.00 0.00 0.00 75 1015.1
20260902140106 26 130 0.0 0.0 0.00 0.00 0.00 76 1015.1
20260902135539 26 130 0.0 0.0 0.00 0.00 0.00 79 1015.1
20260902135017 25 130 0.0 0.0 0.00 0.00 0.00 81 1015.1
20260902134529 25 130 0.0 0.0 0.00 0.00 0.00 82 1015.1
20260902134006 25 130 0.0 0.0 0.00 0.00 0.00 84 1015.1
20260902133547 25 130 0.0 0.0 0.00 0.00 0.00 85 1015.1
20260902133108 24 130 0.0 0.0 0.00 0.00 0.00 85 1015.0
20260902132535 24 130 0.0 0.0 0.00 0.00 0.00 86 1014.9
20260902132011 23 130 0.0 0.0 0.00 0.00 0.00 86 1014.8
20260902131539 23 130 0.0 0.0 0.00 0.00 0.00 86 1014.8
20260902131107 23 130 0.0 0.0 0.00 0.00 0.00 87 1014.8
20260902130541 23 130 0.0 0.0 0.00 0.00 0.00 87 1014.8
20260902130056 23 130 0.0 0.0 0.00 0.00 0.00 87 1014.6
20260902125528 23 130 0.0 0.0 0.00 0.00 0.00 87 1014.6
20260902125004 23 130 0.0 0.0 0.00 0.00 0.00 87 1014.6
20260902124515 23 130 0.0 0.0 0.00 0.00 0.00 87 1014.5
20260902124056 23 130 0.0 0.0 0.00 0.00 0.00 87 1014.5
20260902123533 23 130 0.0 0.0 0.00 0.00 0.00 87 1014.5
20260902123044 23 130 0.0 0.0 0.00 0.00 0.00 87 1014.5
20260902122521 23 130 0.0 0.0 0.00 0.00 0.00 86 1014.5
20260902122103 23 130 0.0 0.0 0.00 0.00 0.00 86 1014.5
20260902121508 23 130 0.0 0.0 0.00 0.00 0.00 86 1014.5
20260902121049 23 130 0.0 0.0 0.00 0.00 0.00 86 1014.5
20260902120526 23 130 0.0 0.0 0.00 0.00 0.00 86 1014.4
20260902120040 23 130 0.0 0.0 0.00 0.00 0.00 85 1014.5
20260902115513 23 130 0.0 0.0 0.00 0.00 0.00 85 1014.5
20260902115054 23 130 0.0 0.0 0.00 0.00 0.00 85 1014.5
20260902114501 23 130 0.0 0.0 0.00 0.00 0.00 85 1014.5
20260902114041 23 130 0.0 0.0 0.00 0.00 0.00 84 1014.4
20260902113515 23 130 0.0 0.0 0.00 0.00 0.00 84 1014.4
20260902113026 23 130 0.0 0.0 0.00 0.00 0.00 84 1014.2
20260902112503 24 130 0.0 0.0 0.00 0.00 0.00 84 1014.1
20260902112044 24 130 0.0 0.0 0.00 0.00 0.00 84 1014.1
20260902111555 24 130 0.0 0.0 0.00 0.00 0.00 84 1014.1
20260902111031 24 130 0.0 0.0 0.00 0.00 0.00 84 1014.0
20260902110508 24 130 0.0 0.0 0.00 0.00 0.00 85 1014.0
20260902110020 23 130 0.0 0.0 0.00 0.00 0.00 85 1014.0
20260902105601 23 130 0.0 0.0 0.00 0.00 0.00 85 1014.0
20260902105037 23 130 0.0 0.0 0.00 0.00 0.00 86 1013.9
20260902104555 23 130 0.0 0.0 0.00 0.00 0.00 86 1014.0
20260902104025 23 130 0.0 3.2 0.00 0.00 0.00 86 1014.0
20260902103501 23 130 0.0 3.2 0.00 0.00 0.00 86 1014.0
20260902103012 23 130 0.0 1.6 0.00 0.00 0.00 86 1014.0
20260902102557 23 130 0.0 0.0 0.00 0.00 0.00 86 1014.0
20260902102030 23 130 0.0 0.0 0.00 0.00 0.00 86 1014.0
20260902101545 23 130 0.0 0.0 0.00 0.00 0.00 86 1014.0
20260902101019 23 130 0.0 0.0 0.00 0.00 0.00 86 1014.0
20260902100559 23 130 0.0 0.0 0.00 0.00 0.00 85 1014.1
20260902100004 23 130 0.0 0.0 0.00 0.00 0.00 85 1014.2
20260902095549 23 130 0.0 0.0 0.00 0.00 0.00 85 1014.2
20260902095022 23 130 0.0 0.0 0.00 0.00 0.00 84 1014.2
20260902094533 24 130 0.0 0.0 0.00 0.00 0.00 84 1014.3
20260902094012 24 130 0.0 0.0 0.00 0.00 0.00 84 1014.2
20260902093551 24 130 0.0 0.0 0.00 0.00 0.00 84 1014.2
20260902093104 24 130 0.0 0.0 0.00 0.00 0.00 84 1014.2
20260902092540 24 130 0.0 0.0 0.00 0.00 0.00 84 1014.3
20260902092015 24 130 0.0 0.0 0.00 0.00 0.00 84 1014.3
20260902091554 24 130 0.0 0.0 0.00 0.00 0.00 83 1014.2
20260902091003 24 130 0.0 0.0 0.00 0.00 0.00 82 1014.3
20260902090544 24 130 0.0 0.0 0.00 0.00 0.00 82 1014.4
20260902085532 25 130 0.0 0.0 0.00 0.00 0.00 81 1014.3
20260902085008 25 130 0.0 0.0 0.00 0.00 0.00 81 1014.3
20260902084519 25 130 0.0 0.0 0.00 0.00 0.00 81 1014.3
20260902084100 25 130 0.0 0.0 0.00 0.00 0.00 80 1014.3
20260902083537 25 130 0.0 0.0 0.00 0.00 0.00 80 1014.3
20260902083048 25 130 0.0 3.2 0.00 0.00 0.00 80 1014.3
20260902082524 25 130 0.0 3.2 0.00 0.00 0.00 80 1014.3
20260902082105 25 130 0.0 3.2 0.00 0.00 0.00 79 1014.4
20260902081515 25 130 0.0 3.2 0.00 0.00 0.00 80 1014.3
20260902081053 25 130 0.0 3.2 0.00 0.00 0.00 79 1014.4
20260902080529 25 130 0.0 4.8 0.00 0.00 0.00 80 1014.5
20260902080055 25 130 1.6 4.8 0.00 0.00 0.00 79 1014.4
20260902075516 25 130 0.0 4.8 0.00 0.00 0.00 79 1014.5
20260902075058 25 130 1.6 4.8 0.00 0.00 0.00 79 1014.5
20260902074504 25 130 1.6 4.8 0.00 0.00 0.00 79 1014.5
20260902074048 25 130 1.6 3.2 0.00 0.00 0.00 79 1014.5
20260902073522 25 130 0.0 1.6 0.00 0.00 0.00 78 1014.5
20260902073034 26 130 0.0 1.6 0.00 0.00 0.00 77 1014.5
20260902072509 26 130 0.0 1.6 0.00 0.00 0.00 77 1014.6